This is the latest recevied weather packets stored in our database for station/object KJ5IIV. If no packets are shown the sender has not sent any weather packets the latest 1 day(s).
| Time | Temp. | Humidity | Pressure | Rain* | Wind** | Luminosity | Snow |
|---|---|---|---|---|---|---|---|
| 1778056400 | 18.33° C | 80% | 1008.5 hPa | 0 mm | - | 0 W/m² | - |
| 1778056098 | 18.33° C | 80% | 1008.5 hPa | 0 mm | - | 0 W/m² | - |
| 1778055794 | 18.33° C | 80% | 1008.6 hPa | 0 mm | - | 0 W/m² | - |
| 1778054582 | 19.44° C | 79% | 1008.5 hPa | 0 mm | - | 0 W/m² | - |
| 1778054280 | 19.44° C | 79% | 1008.5 hPa | 0 mm | - | 0 W/m² | - |
| 1778053674 | 20° C | 79% | 1008.1 hPa | 0 mm | - | 0 W/m² | - |
| 1778053371 | 20° C | 79% | 1008.3 hPa | 0 mm | - | 0 W/m² | - |
| 1778053069 | 20.56° C | 79% | 1008.3 hPa | 0 mm | - | 0 W/m² | - |
| 1778052766 | 20.56° C | 79% | 1008.3 hPa | 0 mm | - | 0 W/m² | - |
| 1778052463 | 21.11° C | 79% | 1008.1 hPa | 0 mm | - | 0 W/m² | - |
| 1778052161 | 21.11° C | 78% | 1008 hPa | 0 mm | - | 0 W/m² | - |
| 1778051858 | 21.67° C | 79% | 1007.8 hPa | 0 mm | - | 0 W/m² | - |
| 1778051556 | 22.22° C | 80% | 1007.7 hPa | 0 mm | - | 0 W/m² | - |
| 1778050647 | 23.89° C | 82% | 1007.9 hPa | 0 mm | - | 0 W/m² | - |
| 1778050344 | 24.44° C | 86% | 1007.7 hPa | 0 mm | - | 0 W/m² | - |
| 1778049131 | 24.44° C | 85% | 1007.8 hPa | 0 mm | - | 0 W/m² | - |
| 1778048830 | 24.44° C | 85% | 1007.7 hPa | 0 mm | - | 0 W/m² | - |
| 1778047920 | 24.44° C | 84% | 1007.9 hPa | 0 mm | - | 0 W/m² | - |
| 1778047315 | 24.44° C | 84% | 1007.9 hPa | 0 mm | - | 0 W/m² | - |
| 1778047012 | 24.44° C | 84% | 1007.7 hPa | 0 mm | - | 0 W/m² | - |
| 1778046709 | 24.44° C | 85% | 1007.6 hPa | 0 mm | - | 0 W/m² | - |
| 1778046406 | 24.44° C | 85% | 1007.7 hPa | 0 mm | - | 0 W/m² | - |
| 1778046102 | 24.44° C | 85% | 1007.6 hPa | 0 mm | - | 0 W/m² | - |
| 1778045800 | 24.44° C | 85% | 1007.6 hPa | 0 mm | - | 0 W/m² | - |
| 1778045498 | 24.44° C | 86% | 1007.8 hPa | 0 mm | - | 0 W/m² | - |
* Rain latest hour (hover to see other rain measurements)
** Current wind speed in m/s (hover to see current wind gust speed)